Date,TemperatureHighF,TemperatureAvgF,TemperatureLowF,DewpointHighF,DewpointAvgF,DewpointLowF,HumidityHigh,HumidityAvg,HumidityLow,PressureMaxIn,PressureMinIn,WindSpeedMaxMPH,WindSpeedAvgMPH,GustSpeedMaxMPH,PrecipitationSumIn
2013-1-1,47,39,34,30,20,16,71,48,37,30.39,30.24,24,7,24,0.00
2013-1-2,49,40,34,24,17,13,42,40,37,30.27,30.12,25,10,25,0.00
2013-1-3,51,42,35,49,26,13,98,56,37,30.30,30.06,24,7,24,0.00
2013-1-4,58,47,42,50,41,31,98,83,38,30.33,30.15,9,1,9,0.00
2013-1-5,49,45,43,43,36,28,98,71,48,30.21,30.12,10,2,10,0.00
2013-1-6,53,46,42,48,37,27,98,72,38,30.24,30.15,10,1,10,0.00
2013-1-7,52,50,46,52,48,42,98,96,87,30.27,30.12,20,4,20,0.00
2013-1-8,52,51,49,51,45,35,98,81,54,30.27,30.00,22,5,22,0.00
2013-1-9,51,45,38,45,31,18,84,60,37,30.03,29.83,22,4,22,0.00
2013-1-10,47,40,36,35,29,19,87,69,38,30.18,30.03,26,3,26,0.00
2013-1-11,50,39,32,34,26,17,86,62,37,30.33,30.18,16,3,16,0.00
2013-1-12,43,34,30,24,18,15,79,51,39,30.39,30.30,13,4,13,0.00
2013-1-13,38,32,29,22,15,12,72,49,40,30.48,30.39,15,6,15,0.00
2013-1-14,47,35,28,23,17,12,61,48,37,30.56,30.47,14,5,14,0.00
2013-1-15,49,37,32,30,23,18,86,58,37,30.65,30.56,15,5,15,0.00
2013-1-16,51,40,35,26,21,16,62,46,37,30.59,30.42,17,8,17,0.00
2013-1-17,54,43,36,28,20,16,46,40,36,30.42,30.24,22,8,22,0.00
2013-1-18,59,44,36,32,22,16,70,42,35,30.27,30.21,17,5,17,0.00
2013-1-19,52,41,34,37,26,20,89,58,37,30.30,30.21,9,2,9,0.00
2013-1-20,59,41,31,32,23,15,91,51,35,30.30,30.18,13,4,13,0.00
2013-1-21,60,42,34,32,21,14,62,44,35,30.21,30.09,14,6,14,0.00
2013-1-22,58,44,35,30,21,16,58,41,35,30.09,29.91,15,6,15,0.00
2013-1-23,45,42,38,39,29,19,98,64,39,30.21,29.88,10,2,10,0.00
2013-1-24,54,44,36,42,36,28,98,77,37,30.21,30.12,15,4,15,0.00
2013-1-25,51,48,43,50,45,40,98,92,82,30.18,30.03,17,3,17,0.00
2013-1-26,51,44,40,42,34,24,87,69,37,30.15,30.00,15,2,15,0.00
2013-1-27,45,42,37,43,37,32,98,84,61,30.21,30.12,17,2,17,0.00
2013-1-28,48,44,43,42,32,27,86,63,47,30.33,30.15,17,3,17,0.00
2013-1-29,52,46,43,46,37,26,96,72,39,30.56,30.33,15,4,15,0.00
2013-1-30,50,46,44,46,41,37,91,85,78,30.56,30.47,9,1,9,0.00
2013-1-31,60,46,42,49,42,25,98,88,35,30.48,30.36,9,1,9,0.00
2013-2-1,57,44,39,41,36,27,98,77,36,30.36,30.21,15,4,15,0.00
2013-2-2,61,49,43,34,30,26,67,49,35,30.36,30.24,15,4,15,0.00
2013-2-3,53,48,46,42,34,26,85,58,37,30.36,30.24,6,1,6,0.00
2013-2-4,53,47,42,45,34,26,91,64,37,30.27,30.03,17,2,17,0.00
2013-2-5,54,48,45,45,36,27,89,65,45,30.12,29.97,20,4,20,0.00
2013-2-6,53,47,41,43,34,26,87,63,37,30.15,29.88,23,3,23,0.00
2013-2-7,46,41,37,36,30,24,87,67,47,30.15,30.00,13,2,13,0.00
2013-2-8,50,36,33,36,33,23,98,90,39,30.30,30.15,22,2,22,0.00
2013-2-9,54,43,35,42,33,24,98,73,36,30.33,30.30,8,1,8,0.00
2013-2-10,52,46,41,46,33,24,98,64,36,30.36,30.30,13,3,13,0.00
2013-2-11,55,47,43,42,33,24,83,60,36,30.45,30.36,11,2,11,0.00
2013-2-12,57,50,47,50,40,30,95,73,37,30.53,30.44,10,2,10,0.00
2013-2-13,58,49,47,47,39,29,88,70,36,30.53,30.47,8,1,8,0.00
2013-2-14,60,48,42,44,35,28,98,65,35,30.56,30.45,15,3,15,0.00
2013-2-15,68,51,41,42,33,25,93,53,33,30.45,30.21,17,3,17,0.00
2013-2-16,54,48,41,42,32,23,82,56,36,30.36,30.30,14,3,14,0.00
2013-2-17,53,43,36,40,29,21,93,60,36,30.33,30.09,12,2,12,0.00
2013-2-18,51,42,35,36,30,22,95,67,37,30.09,29.74,15,2,15,0.00
2013-2-19,49,40,38,36,31,24,85,71,38,29.80,29.68,11,2,11,0.00
2013-2-23,39,38,37,30,24,23,71,59,53,30.27,30.27,14,1,14,0.00
2013-2-26,57,46,41,29,25,21,57,44,35,30.33,30.27,13,2,13,0.00
2013-2-27,43,42,42,30,29,26,60,58,53,30.33,30.30,5,0,5,0.00
2013-2-28,53,50,42,52,45,30,98,87,60,30.50,30.30,17,4,17,0.00
2013-3-1,60,53,50,54,43,33,98,73,38,30.50,30.36,14,2,14,0.00
2013-3-2,54,50,42,48,39,28,86,69,42,30.36,30.24,16,3,16,0.00
2013-3-3,55,43,35,40,29,21,98,63,36,30.33,30.21,20,4,20,0.00
2013-3-4,57,43,32,35,26,18,92,54,35,30.21,29.88,20,4,20,0.00
2013-3-5,47,44,41,40,36,29,88,74,51,29.88,29.62,10,2,10,0.00
2013-3-6,52,45,42,42,35,25,86,70,37,29.97,29.59,11,2,26,0.00
2013-3-7,57,44,36,42,30,24,98,61,35,30.03,29.97,13,3,13,0.00
2013-3-8,53,43,34,48,33,26,98,71,36,30.24,30.03,17,4,17,0.00
2013-3-9,61,45,35,43,34,26,98,70,35,30.53,30.24,13,3,13,0.00
2013-3-10,62,47,36,46,35,27,96,68,34,30.53,30.45,10,2,10,0.00
2013-3-11,60,52,48,51,40,30,91,67,35,30.45,30.27,9,2,9,0.00
2013-3-12,62,50,46,50,38,30,93,67,35,30.27,30.21,12,2,12,0.00
2013-3-13,61,50,46,41,36,29,79,60,34,30.27,30.15,12,2,12,0.00
2013-3-14,60,51,47,40,35,28,76,55,35,30.27,30.12,17,3,17,0.00
2013-3-15,63,53,48,50,41,31,85,66,35,30.27,30.24,10,2,10,0.00
2013-3-16,52,48,44,49,40,21,93,73,39,30.27,30.15,18,4,18,0.00
2013-3-17,53,44,38,38,26,19,86,50,36,30.36,30.24,13,3,13,0.00
2013-3-18,58,45,34,37,27,21,90,53,35,30.33,30.09,18,4,18,0.00
2013-3-19,57,49,45,48,29,21,85,48,35,30.09,29.71,16,3,16,0.00
2013-3-20,54,49,42,48,32,19,89,54,36,30.27,29.65,26,8,26,0.00
2013-3-21,52,44,39,32,26,20,75,50,36,30.39,30.27,17,4,17,0.00
2013-3-22,51,43,35,33,26,17,77,54,37,30.42,30.39,16,4,16,0.00
2013-3-23,52,42,32,30,24,18,84,51,36,30.42,30.27,17,4,17,0.00
2013-3-24,55,45,37,29,25,19,70,47,36,30.27,30.09,13,3,13,0.00
2013-3-25,58,47,38,38,29,25,80,53,35,30.09,29.97,10,2,10,0.00
2013-3-26,58,50,46,42,33,26,79,52,35,30.03,29.97,9,2,9,0.00
2013-3-27,61,52,46,46,36,31,84,57,35,30.03,29.91,13,3,13,0.00
2013-3-28,61,53,46,50,38,31,89,61,35,30.18,30.00,10,2,10,0.00
2013-3-29,67,55,48,45,37,30,84,54,33,30.21,30.12,15,3,15,0.00
2013-3-30,80,60,48,49,39,30,92,49,30,30.15,29.94,17,5,17,0.00
2013-3-31,65,54,48,46,39,32,80,57,34,30.09,30.00,13,3,13,0.00
2013-4-1,58,53,51,50,41,32,89,66,38,30.24,30.06,13,3,13,0.00
2013-4-2,61,52,46,46,38,30,82,60,35,30.27,30.18,13,3,13,0.00
2013-4-3,60,52,45,48,37,30,87,60,35,30.21,29.91,11,2,11,0.00
2013-4-4,57,54,51,55,47,41,94,80,57,29.94,29.74,25,4,25,0.00
2013-4-5,54,53,51,51,47,37,98,82,52,30.03,29.88,31,6,31,0.00
2013-4-6,59,52,50,49,42,33,89,70,39,30.06,29.77,26,6,26,0.00
2013-4-7,57,49,43,50,37,23,91,65,36,30.03,29.74,29,8,29,0.00
2013-4-8,56,47,41,44,30,22,84,55,35,30.36,30.03,18,3,18,0.00
2013-4-9,65,51,42,38,32,25,82,52,33,30.36,30.30,11,2,11,0.00
2013-4-10,57,48,43,51,36,27,93,64,35,30.39,30.27,21,3,21,0.00
2013-4-11,57,48,41,46,32,25,92,59,35,30.39,30.21,21,4,21,0.00
2013-4-12,58,47,38,45,33,24,88,61,35,30.21,29.97,15,4,15,0.00
2013-4-13,55,47,41,29,24,20,56,41,36,30.18,30.06,15,5,17,0.00
2013-4-14,52,45,40,40,30,23,85,57,36,30.18,30.00,13,3,13,0.00
2013-4-15,54,46,40,34,28,21,73,51,36,30.24,30.00,17,4,17,0.00
2013-4-16,58,47,38,40,30,24,87,55,35,30.45,30.24,17,5,17,0.00
2013-4-17,58,48,37,39,29,26,88,51,35,30.53,30.45,15,4,15,0.00
2013-4-18,62,52,47,39,31,26,64,45,35,30.50,30.39,15,3,15,0.00
2013-4-19,55,51,50,52,44,34,96,77,47,30.42,30.27,15,4,15,0.00
2013-4-20,59,52,43,46,35,26,90,58,35,30.42,30.33,17,4,17,0.00
2013-4-21,61,50,42,41,33,26,88,54,34,30.36,30.30,11,3,11,0.00
2013-4-22,71,57,42,41,33,24,75,43,32,30.36,30.27,27,6,27,0.00
2013-4-23,66,54,40,36,29,17,52,37,33,30.30,30.15,28,7,28,0.00
2013-4-24,47,45,41,34,25,20,74,45,38,30.21,30.12,9,3,9,0.00
2013-4-25,47,47,47,22,22,22,38,38,38,30.12,30.12,4,4,4,0.00
2013-4-26,47,47,47,22,22,22,38,38,38,30.12,30.12,4,4,4,0.00
2013-5-4,86,74,46,52,44,34,88,38,29,30.06,29.80,28,7,28,0.00
2013-5-5,88,67,52,51,37,28,43,33,28,29.85,29.65,25,7,25,0.00
2013-5-6,73,58,49,42,36,31,68,44,32,30.00,29.85,17,4,17,0.00
2013-5-7,64,56,52,38,34,30,56,43,34,30.09,29.97,15,4,15,0.00
2013-5-8,64,56,52,35,33,30,50,41,34,30.21,30.09,13,4,13,0.00
2013-5-9,63,55,51,42,34,31,67,46,34,30.24,30.12,20,4,20,0.00
2013-5-10,63,54,51,44,36,31,75,52,34,30.30,30.21,12,2,12,0.00
2013-5-11,75,61,48,45,36,31,79,42,31,30.27,30.09,14,2,14,0.00
2013-5-12,70,60,54,52,40,33,87,51,33,30.18,30.12,14,3,14,0.00
2013-5-13,65,57,50,54,44,33,93,67,34,30.27,30.12,15,4,15,0.00
2013-5-14,66,55,47,49,36,29,93,51,33,30.27,30.18,21,5,21,0.00
2013-5-15,68,53,47,46,37,31,75,57,33,30.18,30.03,13,1,13,0.00
2013-5-16,67,58,53,50,41,32,85,57,33,30.03,30.00,18,3,18,0.00
2013-5-17,70,55,50,52,41,28,85,62,33,30.15,30.03,15,1,15,0.00
2013-5-18,58,54,50,52,41,32,92,62,42,30.33,30.15,15,3,15,0.00
2013-5-19,62,55,48,53,37,28,96,54,34,30.45,30.33,29,9,29,0.00
2013-5-20,68,54,43,52,35,29,98,52,33,30.36,30.00,22,4,22,0.00
2013-5-21,55,51,47,47,34,26,88,53,36,30.09,29.88,22,6,22,0.00
2013-5-26,59,56,54,37,35,31,52,46,36,30.09,30.03,10,3,10,0.00
2013-5-27,58,55,53,52,47,37,86,75,52,30.03,29.80,28,5,28,0.00
2013-5-28,68,58,52,52,42,31,94,60,33,30.00,29.77,15,4,15,0.00
2013-5-29,63,56,49,54,39,30,96,57,35,30.12,29.71,31,6,31,0.00
2013-5-30,68,56,48,46,37,30,86,51,33,30.30,30.12,13,2,13,0.00
2013-5-31,49,47,45,48,42,32,98,86,52,30.33,30.30,7,1,7,0.00
2013-6-3,54,54,54,35,35,35,49,49,49,30.06,30.06,10,8,10,0.00
2013-6-4,66,57,49,49,44,37,78,62,43,30.09,30.06,0,0,0,0.00